Terminal Aerodrome Forecast
Issued by NWS Charleston, WV

Current Version | Previous Version | Graphics & Text | Print | Product List | Glossary On
Versions: 1 2 3 4 5 6 7 8 9 10 11 12 13 14 15 16 17 18 19 20 21 22 23 24 25
166
FTUS41 KRLX 211120
TAFBKW
TAF
KBKW 211120Z 2112/2212 25008KT 6SM SHRA OVC035
     FM211300 25009KT 6SM SHRA OVC035
     FM211500 26010KT P6SM OVC025
     FM212100 30009KT P6SM SHRA VCTS OVC015CB
     FM212300 30006KT P6SM OVC015
     FM220600 33004KT 4SM SHRA OVC010
     FM220800 35004KT 4SM SHRA OVC008=

USA.gov is the U.S. government's official web portal to all federal, state and local government web resources and services.